Oceanside, CA

7:29 PM PDT on May 20, 2018 (GMT -0700)
Oceanside Municipal

Weather History for KOKB - May, 2013

Change the Weather History Date:

Thursday, May 2, 2013

  Actual Average Record
Temperature  
Mean Temperature 70 °F 60 °F  
Max Temperature 80 °F 69 °F 92 °F (2004)
Min Temperature 59 °F 52 °F 45 °F (2002)
Degree Days  
Heating Degree Days 0 5  
Month to date heating degree days 1 10  
Since 1 July heating degree days 1748 1904  
Cooling Degree Days 5 0  
Month to date cooling degree days 5 0  
Year to date cooling degree days 5 3  
Growing Degree Days 16 (Base 50)    
Moisture  
Dew Point 55 °F    
Average Humidity 60    
Maximum Humidity 80    
Minimum Humidity 40    
Precipitation  
Precipitation 0.00 in 0.02 in 0.03 in (2012)
Month to date precipitation 0.00 0.04  
Year to date precipitation 1.74 8.94  
Since 1 July precipitation 5.58  
Snow  
Snow 0.00 in - - ()
Month to date snowfall 0.0  
Year to date snowfall 0.0  
Snow Depth 0.00 in    
Sea Level Pressure  
Sea Level Pressure 30.05 in    
Wind  
Wind Speed 5 mph (West)    
Max Wind Speed 15 mph    
Max Gust Speed 21 mph    
Visibility 9 miles    
Events      
T = Trace of Precipitation, MM = Missing Value Source: NWS Daily Summary

Daily Weather History Graph

Daily Weather History Graph

Search for Another Location

Airport or City:

Astronomy

May. 02, 2013 Rise Set
Actual Time 6:00 AM PDT 7:32 PM PDT
Civil Twilight 5:33 AM PDT 7:59 PM PDT
Nautical Twilight 5:02 AM PDT 8:31 PM PDT
Astronomical Twilight 4:28 AM PDT 9:04 PM PDT
Moon 1:28 AM PDT (5/2) 12:48 PM PDT (5/2)
Length of Visible Light 14h 25m
Length of Day
13h 32m
Waning Gibbous, 46% of the Moon is Illuminated
May 2
Waning Gibbous
May 9
New
May 17
First Quarter
May 24
Full
May 31
Last Quarter

Hourly Weather History & Observations

Time (PDT) Temp. Dew Point Humidity Pressure Visibility Wind Dir Wind Speed Gust Speed Precip Events Conditions
12:52 AM 60.1 °F 54.0 °F 80% 30.10 in 10.0 mi Calm Calm - N/A   Overcast
1:52 AM 61.0 °F 54.0 °F 78% 30.08 in 10.0 mi Calm Calm - N/A   Overcast
2:52 AM 60.1 °F 54.0 °F 80% 30.07 in 10.0 mi NNW 3.5 mph - N/A   Overcast
3:52 AM 60.1 °F 54.0 °F 80% 30.07 in 10.0 mi Calm Calm - N/A   Overcast
4:52 AM 59.0 °F 54.0 °F 83% 30.07 in 10.0 mi NW 3.5 mph - N/A   Overcast
5:52 AM 59.0 °F 54.0 °F 83% 30.08 in 10.0 mi Calm Calm - N/A   Overcast
6:52 AM 60.1 °F 54.0 °F 80% 30.09 in 9.0 mi NE 3.5 mph - N/A   Overcast
7:29 AM 60.8 °F 53.6 °F 77% 30.10 in 9.0 mi ENE 3.5 mph - N/A   Scattered Clouds
7:52 AM 62.1 °F 53.1 °F 72% 30.10 in 9.0 mi NE 3.5 mph - N/A   Clear
8:52 AM 66.0 °F 52.0 °F 60% 30.10 in 9.0 mi NE 3.5 mph - N/A   Clear
9:52 AM 72.0 °F 55.0 °F 55% 30.09 in 9.0 mi West 5.8 mph - N/A   Clear
10:52 AM 72.0 °F 55.9 °F 57% 30.09 in 9.0 mi West 6.9 mph - N/A   Clear
11:52 AM 75.9 °F 55.9 °F 50% 30.08 in 8.0 mi West 8.1 mph - N/A   Clear
12:52 PM 78.1 °F 55.9 °F 46% 30.06 in 10.0 mi West 8.1 mph 17.3 mph N/A   Clear
1:52 PM 77.0 °F 55.9 °F 48% 30.05 in 9.0 mi WSW 9.2 mph - N/A   Clear
2:52 PM 77.0 °F 53.1 °F 43% 30.03 in 10.0 mi West 8.1 mph 16.1 mph N/A   Clear
3:52 PM 78.1 °F 54.0 °F 43% 30.01 in 9.0 mi SW 6.9 mph - N/A   Clear
4:52 PM 77.0 °F 52.0 °F 42% 29.99 in 10.0 mi Variable 5.8 mph - N/A   Clear
5:52 PM 72.0 °F 57.0 °F 59% 29.98 in 9.0 mi SW 8.1 mph - N/A   Clear
6:52 PM 69.1 °F 57.0 °F 65% 29.98 in 8.0 mi WSW 8.1 mph - N/A   Clear
7:52 PM 64.0 °F 59.0 °F 84% 29.99 in 8.0 mi WSW 4.6 mph - N/A   Clear
8:52 PM 62.1 °F 57.0 °F 84% 30.00 in 8.0 mi WSW 4.6 mph - N/A   Clear
9:52 PM 57.9 °F 54.0 °F 87% 30.01 in 7.0 mi Calm Calm - N/A   Clear
10:52 PM 55.9 °F 53.1 °F 90% 30.01 in 7.0 mi Calm Calm - N/A   Clear
11:52 PM 54.0 °F 52.0 °F 93% 30.01 in 7.0 mi Calm Calm - N/A   Clear